Flag for Israel Weather past 2 weeks in Bat Yam, Israel

Now
73 °F

Sunny.


Feels Like: 75 °F
Forecast: 68 / 90 °F
Wind: 15 mph from North

Location: Dov Airport


UV Index: 7 (High)

Visibility: 10 mi


Pressure: 29.92 "Hg

Humidity: 74%

Dew point: 64 °F

Location of Bat YamLocation

Historic Weather in Bat Yam

°F

Bat Yam temperature yesterday

Maximum temperature yesterday: 72 °F (at 9:50 AM)
Minimum temperature yesterday: 61 °F (at 5:50 AM)
Average temperature yesterday: 69 °F

Past Weeks' High & Low Weather Summary

 TemperatureHumidityPressure
High88 °F (Apr 19, 7:50 PM)88% (Apr 9, 6:50 AM)30.07 "Hg (Apr 9, 6:50 AM)
Low57 °F (Apr 11, 5:00 AM)21% (Apr 19, 4:50 AM)29.80 "Hg (Apr 15, 3:50 PM)
Average70 °F66%29.93 "Hg
* Reported Apr 8 5:50 PM — Apr 23 5:50 PM, Bat Yam, Weather by CustomWeather, © 2014

Note: Actual official high and low records may vary slightly from our data, if they occured in-between our weather recording intervals... More about our weather records

Advertising

Historic Weather Conditions — Data for Previous 24 hours

 ConditionsComfort  
Time TempWeatherWind HumidityBarometerVisibility
5:50 PM
Apr 23
73 °FSunny.15 mph74%29.92 "Hg10 mi
4:50 PM73 °FSunny.14 mph74%29.92 "Hg10 mi
3:50 PM73 °FSunny.15 mph74%29.92 "Hg10 mi
2:50 PM72 °FSunny.14 mph78%29.95 "Hg10 mi
1:50 PM72 °FPassing clouds.10 mph78%29.95 "HgN/A
12:50 PM72 °FPassing clouds.10 mph78%29.98 "HgN/A
11:50 AM72 °FPassing clouds.9 mph73%30.01 "HgN/A
10:50 AM70 °FPassing clouds.9 mph78%30.01 "HgN/A
9:50 AM70 °FPassing clouds.7 mph78%30.01 "HgN/A
8:50 AM70 °FPassing clouds.5 mph73%30.04 "HgN/A
7:50 AM70 °FSunny.1 mph73%30.04 "Hg10 mi
6:50 AM63 °FClear.5 mph77%30.01 "Hg10 mi
5:50 AM61 °FClear.6 mph83%30.01 "Hg10 mi
10:50 PM
Apr 22
66 °FPassing clouds.3 mph83%30.04 "HgN/A
9:50 PM66 °FPassing clouds.6 mph83%30.04 "HgN/A
8:50 PM68 °FPassing clouds.6 mph78%30.04 "HgN/A
7:50 PM68 °FPassing clouds.5 mph78%30.01 "HgN/A
6:50 PM70 °FPassing clouds.8 mph73%30.01 "HgN/A
Weather by CustomWeather, © 2014

See weather overview